{"data":{"norad_id":67026,"intl_designator":"2025-293Z","name":"STARLINK-36176","alt_names":[],"object_type":"PAYLOAD","status":"ACTIVE","operator":null,"country":"US","launch_date":"2025-12-10","launch_site_code":"AFWTR","launch_vehicle":null,"mission":null,"orbit_class":"UNKNOWN","rcs_meters":null,"size_class":null,"mass_kg":null,"dimensions":null,"purposes":["comms"],"wikipedia_slug":null,"has_3d_model":false,"image_url":null,"decayed_at":null,"tle_current":{"epoch":"2026-09-20T21:43:47.622720Z","epoch_age_seconds":46697,"freshness":"FRESH","line1":"1 67026U 25293Z   26263.90541230  .00005584  00000+0  47510-3 0  9996","line2":"2 67026  70.0073 322.0703 0003629 276.0416  84.0329 14.98353557 44120","mean_motion":14.98353557,"eccentricity":0.0003629,"inclination_deg":70.0073,"raan_deg":322.0703,"arg_perigee_deg":276.0416,"mean_anomaly_deg":84.0329,"bstar":0.0004751,"rev_number":4412,"period_min":96.105488138805,"perigee_km":569.46084525567,"apogee_km":574.50524238347,"semimajor_km":6950.1200438196,"source":"CELESTRAK","updated_at":"2026-09-21T09:00:36.073174Z"}}}